Location: Mount Cross
(36.6390°N, 79.4878°W)
Time: 02:05:44
(UTC+00:00)

Vanguard 2 Rocket - Pass Details

Date: 23 March 2023
Orbit: 554 x 3314 km, 32.9° (Epoch: 08 June)

Event Time Altitude Azimuth Distance (km) Brightness Sun altitude
Rises 03:25:27 0° 266° (W) 4,434 10.8 -43.4°
Reaches altitude 10° 03:27:53 10° 264° (W) 3,738 10.3 -43.7°
Enters shadow 03:34:37 53° 250° (WSW) 2,378 8.8 -44.6°
